Showing default

AEHF 4 (USA 288), 43651

Orbit data source: Space-Track

AEHF 4 (USA 288), 43651 is a payload satellite owned by USAF MCSW (US) in GEO that was launched on Wed, 17 Oct 2018 UTC via an ATLAS V 551 launch vehicle from the Air Force Eastern Test Range (AFETR). Payload-class satellites include a variety of spacecraft equipped with specific instruments for various scientific and technological missions. These include communications satellites like Starlink; space stations such as the ISS; scientific satellites like the Hubble; Earth observation satellites from companies like Planet Labs, Umbra, and HawkEye 360; GPS; miniature CubeSats for education and research; and military/defense satellites.

Loading next visibility...
Identifier
43651, 2018-079A
Orbit
GEO
Country
Flag of USUS
Related business
Manufacturer
LMSS
Mission
Operational Defense Communications
Bus & Motor
A2100M, BT-4/AJ-EP?
Mass
6,200 kg wet, ~4,000 kg dry
Launch date (UTC)
2018-10-17 (7 years ago)
Launch vehicle
ATLAS V 551
Launch site
Air Force Eastern Test Range (AFETR)
Object type
Payload
Rocket body
Debris
Shape & HBR
Box + 2 Pan, 13.5 m
Radar Cross Section
35.027 m², Large (>1 m²)

Expand to show TLE details & history
Last TLE update: 9 hours ago

TLE from 9 hours ago
0 AEHF 4 (USA 288)
1 43651U 18079A   25308.49220887 -.00000264  00000-0  00000-0 0  9995
2 43651   1.4767 344.4955 0057619   4.5767 164.4605  1.00266111 26043
Epoch: 2025-11-04T11:48Z
TLE epoch observation values (Epoch: 2025-11-04T11:48:46.846Z)
Latitude
0.25372°
Longitude
-67.49495°
Altitude
36,021.202 km
Speed
3.058 km/s
True Right ascension
10h 14m 42s
True Declination
0° 15' 12"
Sunlit
Object was in daylight at epoch
Visualization orbit readout
Latitude
Unknown
Longitude
Unknown
Altitude
Unknown
Speed
Unknown
Apparent Right ascension
Unknown
Apparent Declination
Unknown
Sunlit
N/A
Visualization observer readout
Local Sidereal Time
16:41:15
Azimuth
Unknown
Elevation
Unknown
Doppler factor
Unknown
Orbital elements
Apogee altitude
36,032.219 km
Perigee altitude
35,546.291 km
Semi-major axis
42,167.392 km
Eccentricity
0.00576
Inclination
1.4767°
RAAN
344.4955°
Arg. of periapsis
4.5767°
True anomaly
164.63617°
Mean anomaly
164.4605°
Eccentric anomaly
164.54846°
Mean motion
0.25066 °/min
Orbital period
1,436.23 mins
BSTAR
0
Loading maneuver chart data...
Computing Atmospheric mass density...

Documentation

Showing up to 5 results
|